[[{"header":{"parameterUnit":"m.s-1","parameterCategory":1,"la1":30.2991,"la2":30.254,"lo1":-89.0895,"lo2":-89.0444,"dy":0.0017,"dx":0.0017,"nx":28,"ny":28,"refTime":"2024-08-22T03:00:00:Z","depth":0,"parameterNumber":2,"parameterNumberName":"U-component_of_WINDS"},"data":[0,0,0,0,0,0,0,0,0,0,0,0,0,0,0,0,0,0,0,0,0,0,0,0,0,0,0,0,0,0,0,0,0,0,0,0,0,0,0,0,0,0,0,0,0,0,0,0,0,0,0,0,0,0,0,0,0,0,0.6683,0.6683,0,0.6686,0.6686,0.6686,0.668,0.668,0.668,0.668,0.6683,0.6683,0.6683,0,0,0,0,0,0,0,0,0,0,0,0,0,0.6673,0.6673,0.6683,0.6683,0.6683,0.6686,0.6686,0.6686,0.668,0.668,0.668,0.668,0.6683,0.6683,0.6683,0,0,0,0,0,0,0,0,0,0,0,0,0,0.6677,0.6673,0.6683,0.6681,0.6681,0.6686,0.6686,0.6686,0.668,0.668,0.668,0.668,0.6682,0.6683,0.6683,0.6691,0,0,0.6684,0.6684,0,0,0,0,0,0,0,0,0.6677,0.6677,0.6681,0.6681,0.6681,0.6683,0.6683,0.6688,0.6681,0.6681,0.668,0.668,0.6683,0.6683,0.6684,0.6691,0.6691,0.6684,0.6684,0.6685,0.6685,0,0,0,0,0,0,0,0.6676,0.6677,0.6684,0.6681,0.6681,0.668,0.668,0.6684,0.6683,0.668,0.668,0.6681,0.6683,0.6684,0.6684,0.6691,0.6684,0.6685,0.6685,0.6685,0.6705,0.6705,0,0,0,0,0,0,0.6676,0.6677,0.6684,0.6684,0.6678,0.668,0.668,0.6682,0.6683,0.6683,0.6681,0.668,0.6683,0.6684,0.6684,0.6693,0.6685,0.6685,0.6685,0.6704,0.6705,0.6705,0,0,0,0,0,0,0.6676,0.6677,0.6684,0.668,0.6681,0.668,0.6683,0.6682,0.6684,0.6683,0.6683,0.6682,0.6683,0.6684,0.6689,0.6693,0.6685,0.6685,0.6704,0.6704,0.6705,0.6711,0,0,0,0,0,0,0.6676,0.6677,0.668,0.6681,0.6681,0.6689,0.6683,0.6683,0.6684,0.6684,0.6685,0.6684,0.6683,0.6689,0.669,0.6694,0.6686,0.6704,0.6704,0.6705,0.6711,0.6712,0.6713,0,0,0,0,0,0.6676,0.6681,0.668,0.6681,0.6685,0.6689,0.669,0.6688,0.6685,0.6687,0.6687,0.6684,0.6693,0.6689,0.669,0.6695,0.6703,0.6704,0.6705,0.671,0.6712,0.6713,0,0,0,0,0,0,0.6681,0.6681,0.668,0.6686,0.6688,0.6688,0.6692,0.669,0.6692,0.6691,0.6689,0.6689,0.6695,0.6696,0.6692,0.6702,0.6698,0.6699,0.6702,0.6703,0.6704,0.6703,0.6686,0,0,0,0,0,0.6683,0.6686,0.6687,0.6692,0.6693,0.6692,0.6694,0.6693,0.6694,0.6695,0.6695,0.6696,0.6699,0.6701,0.6704,0.6711,0.6711,0.6715,0.6716,0.6717,0.6717,0.6721,0.6722,0.6707,0.6707,0.6707,0,0,0.6687,0.6688,0.669,0.6693,0.6694,0.6698,0.6693,0.6697,0.6699,0.6695,0.67,0.6701,0.6702,0.6709,0.6711,0.6709,0.6722,0.6718,0.6718,0.6718,0.6722,0.6723,0.6725,0.6708,0.6708,0.6708,0,0,0.6696,0.6697,0.6701,0.6703,0.6704,0.6704,0.6705,0.6706,0.6706,0.6712,0.6709,0.6712,0.6717,0.6718,0.672,0.673,0.6727,0.6731,0.6737,0.674,0.6741,0.6743,0.6746,0.6747,0.6732,0.6732,0.6732,0,0.67,0.6705,0.6704,0.6708,0.671,0.6707,0.6712,0.6713,0.6715,0.6717,0.6714,0.6721,0.6722,0.6728,0.6731,0.6732,0.6734,0.673,0.6741,0.6742,0.6743,0.6747,0.6748,0.6732,0.6732,0.6732,0.6732,0,0.6711,0.6715,0.6718,0.6721,0.6723,0.6727,0.6727,0.6729,0.6728,0.6728,0.6734,0.6735,0.6738,0.6739,0.6738,0.6746,0.6744,0.6742,0.6737,0.6745,0.6748,0.6749,0.6733,0.6733,0.6733,0.6732,0,0,0.6722,0.6725,0.6726,0.6727,0.6729,0.6732,0.6737,0.674,0.6742,0.6744,0.6748,0.6752,0.675,0.6752,0.6751,0.6754,0.6762,0.6751,0.6751,0.6753,0.677,0.6772,0.6773,0.6761,0.6761,0.6761,0.677,0,0.673,0.6738,0.6738,0.6745,0.6748,0.6746,0.675,0.6752,0.6752,0.6755,0.6755,0.6759,0.6756,0.6757,0.676,0.676,0.6765,0.676,0.6764,0.6764,0.6763,0.6775,0.6776,0.6785,0.6771,0.6772,0.6772,0,0.6741,0.6744,0.6751,0.6753,0.6755,0.6758,0.6761,0.6764,0.6766,0.6766,0.6769,0.6767,0.6772,0.6768,0.6774,0.677,0.6772,0.6773,0.6773,0.6773,0.6768,0.6774,0.6787,0.6788,0.6774,0.6773,0.6773,0,0.6748,0.6754,0.6759,0.676,0.6763,0.6765,0.6766,0.6768,0.677,0.6773,0.6774,0.6778,0.6779,0.6782,0.6782,0.6779,0.6788,0.6784,0.6788,0.6788,0.6789,0.6789,0.6802,0.6792,0.6792,0.6792,0.6792,0,0.6757,0.6762,0.6762,0.6765,0.6771,0.677,0.6775,0.6776,0.6778,0.6782,0.678,0.6783,0.6783,0.6786,0.6786,0.6791,0.6792,0.6792,0.6792,0.6792,0.6792,0.6792,0.6792,0.6792,0.6792,0.6792,0.6792,0,0.6765,0.6766,0.6771,0.6774,0.6774,0.6778,0.678,0.6783,0.6784,0.6788,0.6789,0.679,0.6793,0.6794,0.6798,0.6798,0.6804,0.6804,0.6803,0.6803,0.6807,0.6806,0.682,0.6822,0.6811,0.6811,0.6811,0,0.6771,0.6774,0.6777,0.6779,0.678,0.6784,0.6786,0.6786,0.6789,0.6792,0.6794,0.6798,0.6801,0.6808,0.6808,0.6812,0.6811,0.6816,0.6811,0.6811,0.6811,0.681,0.681,0.6816,0.6816,0.6817,0.6817,0,0.678,0.678,0.6783,0.6787,0.679,0.6792,0.6795,0.6797,0.6797,0.68,0.6804,0.6806,0.6811,0.6815,0.6818,0.682,0.6818,0.6818,0.6819,0.6819,0.6818,0.6818,0.6805,0.6818,0.6818,0.6817,0.6817,0.6817,0.6786,0.679,0.6792,0.6796,0.6798,0.6801,0.6804,0.6805,0.6808,0.6812,0.6812,0.6816,0.6819,0.6823,0.6825,0.6829,0.6827,0.6828,0.6829,0.6829,0.6829,0.6818,0.6829,0.6829,0.6829,0.6829,0.6829,0,0.6795,0.6797,0.6801,0.6804,0.6808,0.6806,0.6809,0.6812,0.6816,0.6818,0.6822,0.6826,0.683,0.6832,0.6835,0.6838,0.6837,0.6839,0.6838,0.6838,0.6831,0.6829,0.6839,0.6839,0.6839,0.6839,0.6839,0.6839,0.68,0.6806,0.6806,0.6813,0.6814,0.6819,0.682,0.6823,0.6825,0.683,0.6833,0.6835,0.6837,0.6841,0.6844,0.6845,0.6846,0.6848,0.6848,0.684,0.6839,0.6838,0.6837,0.6848,0.6848,0.6855,0.6855,0.6855]},{"header":{"parameterUnit":"m.s-1","parameterCategory":1,"la1":30.2991,"la2":30.254,"lo1":-89.0895,"lo2":-89.0444,"dy":0.0017,"dx":0.0017,"nx":28,"ny":28,"refTime":"2024-08-22T03:00:00:Z","depth":0,"parameterNumber":3,"parameterNumberName":"V-component_of_WINDS"},"data":[0,0,0,0,0,0,0,0,0,0,0,0,0,0,0,0,0,0,0,0,0,0,0,0,0,0,0,0,0,0,0,0,0,0,0,0,0,0,0,0,0,0,0,0,0,0,0,0,0,0,0,0,0,0,0,0,0,0,-0.2245,-0.2246,0,-0.235,-0.2351,-0.2353,-0.2428,-0.2429,-0.243,-0.243,-0.2538,-0.254,-0.2542,0,0,0,0,0,0,0,0,0,0,0,0,0,-0.2108,-0.211,-0.2244,-0.2246,-0.2247,-0.235,-0.2351,-0.2353,-0.2428,-0.2429,-0.243,-0.243,-0.2537,-0.254,-0.2542,0,0,0,0,0,0,0,0,0,0,0,0,0,-0.2186,-0.2111,-0.2244,-0.2297,-0.2303,-0.235,-0.2351,-0.2353,-0.2428,-0.2429,-0.243,-0.2431,-0.2536,-0.2539,-0.2543,-0.2545,0,0,-0.2553,-0.2555,0,0,0,0,0,0,0,0,-0.2181,-0.219,-0.2288,-0.2294,-0.23,-0.2377,-0.2343,-0.2418,-0.2428,-0.2381,-0.243,-0.2431,-0.2483,-0.2491,-0.2509,-0.255,-0.2555,-0.2554,-0.2556,-0.2557,-0.2558,0,0,0,0,0,0,0,-0.2176,-0.2186,-0.2286,-0.2289,-0.2297,-0.2316,-0.2328,-0.2357,-0.2425,-0.2385,-0.2391,-0.2402,-0.2487,-0.2506,-0.2512,-0.2556,-0.2553,-0.2556,-0.2559,-0.256,-0.2606,-0.2605,0,0,0,0,0,0,-0.2162,-0.2181,-0.2283,-0.229,-0.2242,-0.2317,-0.2331,-0.2351,-0.2425,-0.2438,-0.2401,-0.2405,-0.2499,-0.2508,-0.2516,-0.2525,-0.2557,-0.256,-0.2562,-0.2606,-0.2605,-0.2605,0,0,0,0,0,0,-0.2159,-0.217,-0.2279,-0.2237,-0.2252,-0.2319,-0.2341,-0.2353,-0.2372,-0.2438,-0.245,-0.2408,-0.25,-0.2511,-0.2538,-0.2529,-0.2562,-0.2565,-0.2607,-0.2606,-0.2605,-0.2541,0,0,0,0,0,0,-0.2154,-0.2169,-0.217,-0.2237,-0.2254,-0.2298,-0.2341,-0.2354,-0.2377,-0.2384,-0.2447,-0.2458,-0.2502,-0.2532,-0.2541,-0.2535,-0.2568,-0.2609,-0.2607,-0.2605,-0.2544,-0.2537,-0.2532,0,0,0,0,0,-0.2149,-0.2148,-0.217,-0.2182,-0.2258,-0.2298,-0.2308,-0.2358,-0.2376,-0.2379,-0.2421,-0.2456,-0.2529,-0.2534,-0.2545,-0.2539,-0.2609,-0.2607,-0.2606,-0.2546,-0.2538,-0.2532,0,0,0,0,0,0,-0.2078,-0.2157,-0.2183,-0.2203,-0.2243,-0.231,-0.2315,-0.2348,-0.2383,-0.2388,-0.2448,-0.2462,-0.2482,-0.2513,-0.2518,-0.2546,-0.2573,-0.2573,-0.2525,-0.2518,-0.2512,-0.2504,-0.257,0,0,0,0,0,-0.2065,-0.2091,-0.2159,-0.2169,-0.2188,-0.2248,-0.2267,-0.2302,-0.2346,-0.2364,-0.2408,-0.2449,-0.2481,-0.2501,-0.2534,-0.2548,-0.2564,-0.255,-0.2544,-0.2539,-0.2538,-0.2549,-0.2544,-0.2598,-0.2598,-0.2598,0,0,-0.2038,-0.2084,-0.2097,-0.2156,-0.2192,-0.2217,-0.2262,-0.2287,-0.2306,-0.2367,-0.2395,-0.2429,-0.2479,-0.2499,-0.2511,-0.2526,-0.2526,-0.2536,-0.2531,-0.2534,-0.2546,-0.2541,-0.2536,-0.2597,-0.2597,-0.2598,0,0,-0.2001,-0.2039,-0.2052,-0.2087,-0.214,-0.218,-0.2182,-0.2245,-0.227,-0.2299,-0.2346,-0.237,-0.2423,-0.2458,-0.2482,-0.2458,-0.2492,-0.2467,-0.2436,-0.2445,-0.2441,-0.2438,-0.243,-0.2426,-0.2467,-0.2466,-0.2466,0,-0.196,-0.2001,-0.2055,-0.2078,-0.2103,-0.2159,-0.2173,-0.2204,-0.2265,-0.2281,-0.2298,-0.2367,-0.2404,-0.2434,-0.2428,-0.2446,-0.2451,-0.2461,-0.2437,-0.2435,-0.2432,-0.2425,-0.2422,-0.2463,-0.2463,-0.2464,-0.2464,0,-0.1949,-0.1976,-0.1981,-0.2039,-0.2064,-0.2082,-0.2139,-0.2158,-0.2191,-0.2229,-0.2257,-0.2305,-0.2349,-0.2358,-0.239,-0.2392,-0.24,-0.2426,-0.2455,-0.2423,-0.2417,-0.2415,-0.2458,-0.2459,-0.246,-0.2461,0,0,-0.1871,-0.1958,-0.1959,-0.1986,-0.2049,-0.2071,-0.2092,-0.2135,-0.2151,-0.2191,-0.221,-0.2255,-0.2279,-0.2307,-0.2343,-0.2351,-0.2331,-0.2377,-0.2379,-0.2367,-0.2336,-0.2317,-0.2313,-0.2353,-0.2353,-0.2353,-0.2332,0,-0.1845,-0.1885,-0.1934,-0.1958,-0.1985,-0.2039,-0.2057,-0.2097,-0.2133,-0.2161,-0.22,-0.2231,-0.2261,-0.2278,-0.2288,-0.2331,-0.2325,-0.2333,-0.2372,-0.2373,-0.2358,-0.231,-0.2289,-0.2268,-0.233,-0.233,-0.233,0,-0.182,-0.1857,-0.1884,-0.1945,-0.1958,-0.1973,-0.2017,-0.2042,-0.2089,-0.2115,-0.2146,-0.2185,-0.221,-0.2235,-0.227,-0.2274,-0.2293,-0.2316,-0.2317,-0.2323,-0.235,-0.2315,-0.2262,-0.2259,-0.2327,-0.2327,-0.2328,0,-0.1761,-0.1818,-0.1842,-0.1863,-0.1935,-0.1944,-0.1975,-0.2023,-0.2045,-0.2084,-0.2099,-0.2139,-0.2162,-0.2192,-0.2241,-0.2255,-0.2271,-0.2301,-0.2294,-0.2292,-0.2295,-0.2294,-0.2245,-0.2306,-0.2306,-0.2306,-0.2306,0,-0.1727,-0.1741,-0.1816,-0.1831,-0.1849,-0.1905,-0.192,-0.1956,-0.1998,-0.202,-0.2069,-0.2089,-0.2152,-0.218,-0.2218,-0.2242,-0.2251,-0.2273,-0.2283,-0.2269,-0.2266,-0.2283,-0.2286,-0.2305,-0.2305,-0.2305,-0.2306,0,-0.1664,-0.1715,-0.1745,-0.181,-0.1827,-0.1837,-0.1893,-0.1909,-0.1948,-0.1975,-0.1985,-0.2046,-0.2081,-0.2132,-0.2183,-0.2209,-0.2226,-0.2243,-0.221,-0.2217,-0.2207,-0.2207,-0.2167,-0.2164,-0.2226,-0.2225,-0.2225,0,-0.1639,-0.1652,-0.1719,-0.1737,-0.1766,-0.1795,-0.1819,-0.1874,-0.1897,-0.1952,-0.1961,-0.2,-0.2034,-0.2087,-0.2136,-0.2174,-0.2192,-0.2175,-0.2199,-0.2184,-0.2193,-0.2192,-0.2194,-0.217,-0.2169,-0.2168,-0.2168,0,-0.159,-0.1615,-0.1648,-0.1689,-0.1716,-0.1752,-0.1789,-0.1801,-0.1865,-0.1888,-0.1925,-0.1951,-0.2002,-0.204,-0.2086,-0.2117,-0.2153,-0.216,-0.2161,-0.2146,-0.2128,-0.2138,-0.2196,-0.2161,-0.2161,-0.2162,-0.2162,-0.2163,-0.1547,-0.156,-0.161,-0.1644,-0.1679,-0.1713,-0.1731,-0.1772,-0.1804,-0.185,-0.1881,-0.1915,-0.1963,-0.2028,-0.2057,-0.2085,-0.21,-0.2101,-0.2101,-0.21,-0.2096,-0.2122,-0.2093,-0.2094,-0.2094,-0.2094,-0.2094,0,-0.1501,-0.1535,-0.1566,-0.1618,-0.1645,-0.1676,-0.172,-0.1741,-0.177,-0.1811,-0.1844,-0.1886,-0.1923,-0.1974,-0.2015,-0.2028,-0.2045,-0.2036,-0.2036,-0.2043,-0.2079,-0.2075,-0.2022,-0.2022,-0.2022,-0.2022,-0.2022,-0.2022,-0.148,-0.1505,-0.1535,-0.1578,-0.1612,-0.1647,-0.1669,-0.1701,-0.1734,-0.1778,-0.181,-0.1843,-0.1888,-0.1933,-0.1968,-0.1982,-0.1995,-0.1982,-0.2001,-0.2034,-0.204,-0.2047,-0.2043,-0.1984,-0.1984,-0.1963,-0.1962,-0.1962]}]]